World > North America > United States > Ohio

Cincinnati, Ohio Regional Weather

Lat: 39.14N, Lon: 84.51W
Wx Zone: OHZ077
Warning FLW WEATHER ALERT - (More Info. Click Here) Warning
Feedback

Cincinnati, OH Regional Weather

Expires:201908220500;;015977
ASUS41 KCLE 220412
RWRCLE
OHIO REGIONAL WEATHER ROUNDUP
NATIONAL WEATHER SERVICE WILMINGTON, OH
1200 AM EDT THU AUG 22 2019

NOTE: "FAIR" INDICATES FEW OR NO CLOUDS BELOW 12,000 FEET WITH NO
SIGNIFICANT WEATHER AND/OR OBSTRUCTIONS TO VISIBILITY.


OHZ042-051>053-060>062-070>072-077>081-220500-
  SOUTHWEST OHIO
  
CITY           SKY/WX    TMP DP  RH WIND       PRES   REMARKS
CINC-COVINGTON FAIR      70  66  87 S6        29.98F                  
CINC-LUNKEN    FAIR      69  68  96 SE3       29.97F FOG              
HAMILTON       FAIR      69  68  96 CALM      29.98R                  
DAYTON         MOCLDY    75  68  78 W7        30.00R                  
WRIGHT-PAT AFB CLOUDY    75  69  80 NW3       29.98R                  
DAYTON GENERAL FAIR      75  67  76 NW3       29.98R                  
WILMINGTON     FAIR      65  65 100 S6        29.97F                  
$$


SKY/WX - Weather  TMP - Temperature  DP - Dew Point  RH - Relative Humidity
WIND - Wind Direction/Speed PRES - Barometric Pressure VSB - Visibility
WCI - Wind Chill Index E13G22 Wind - East Wind 13 mph/Gusts of 22 mph